Staples, MN

11:05 PM CST on December 10, 2016 (GMT -0600)
Staples Municipal

Weather History for KSAZ - February, 2013

Change the Weather History Date:

Sunday, February 3, 2013

  Actual Average Record
Temperature  
Mean Temperature 2 °F -  
Max Temperature 8 °F 21 °F 42 °F (2005)
Min Temperature -4 °F 4 °F -20 °F (2007)
Degree Days  
Heating Degree Days 63    
Moisture  
Dew Point -2 °F    
Average Humidity 77    
Maximum Humidity 85    
Minimum Humidity 62    
Precipitation  
Precipitation 0.00 in - - ()
Sea Level Pressure  
Sea Level Pressure 29.97 in    
Wind  
Wind Speed 8 mph (WNW)    
Max Wind Speed 13 mph    
Max Gust Speed 18 mph    
Visibility 10 miles    
Events      
Averages and records for this station are not official NWS values.
T = Trace of Precipitation, MM = Missing Value Source: NWS Daily Summary

Daily Weather History Graph

Daily Weather History Graph

Search for Another Location

Airport or City:

Trip Planner

Search our weather history database for the weather conditions in past years. The results will help you decide how hot, cold, wet, or windy it might be!

Date:

Astronomy

Feb. 03, 2013 Rise Set
Actual Time 7:39 AM CST 5:27 PM CST
Civil Twilight 7:07 AM CST 5:59 PM CST
Nautical Twilight 6:31 AM CST 6:35 PM CST
Astronomical Twilight 5:56 AM CST 7:10 PM CST
Moon 1:09 AM CST (2/3) 11:02 AM CST (2/3)
Length of Visible Light 10h 51m
Length of Day
9h 47m
Waning Gibbous, 48% of the Moon is Illuminated
Feb 3
Waning Gibbous
Feb 10
New
Feb 17
First Quarter
Feb 25
Full
Mar 4
Last Quarter

Hourly Weather History & Observations

Time (CST) Temp. Windchill Dew Point Humidity Pressure Visibility Wind Dir Wind Speed Gust Speed Precip Events Conditions
12:14 AM 5.0 °F -10.0 °F 1.4 °F 85% 29.96 in 10.0 mi WNW 10.4 mph - N/A   Overcast
12:33 AM 5.0 °F -10.8 °F 1.4 °F 85% 29.96 in 10.0 mi NW 11.5 mph - N/A   Overcast
12:53 AM 3.2 °F -13.9 °F -0.4 °F 85% 29.97 in 10.0 mi WNW 12.7 mph - N/A   Overcast
1:13 AM 3.2 °F -13.9 °F -0.4 °F 85% 29.97 in 10.0 mi WNW 12.7 mph - N/A   Overcast
1:33 AM 3.2 °F -13.1 °F -0.4 °F 85% 29.96 in 10.0 mi WNW 11.5 mph 18.4 mph N/A   Overcast
1:54 AM 3.2 °F -10.3 °F -0.4 °F 85% 29.95 in 10.0 mi NW 8.1 mph - N/A   Overcast
2:13 AM 1.4 °F -14.5 °F -2.2 °F 85% 29.98 in 10.0 mi WNW 10.4 mph - N/A   Scattered Clouds
2:33 AM 1.4 °F -16.1 °F -2.2 °F 85% 29.98 in 10.0 mi WNW 12.7 mph - N/A   Scattered Clouds
2:54 AM 1.4 °F -15.3 °F -2.2 °F 85% 29.99 in 10.0 mi WNW 11.5 mph - N/A   Mostly Cloudy
3:13 AM -0.4 °F -15.7 °F -4.0 °F 85% 29.98 in 10.0 mi WNW 9.2 mph - N/A   Scattered Clouds
3:33 AM -2.2 °F -18.9 °F -5.8 °F 85% 29.99 in 10.0 mi West 10.4 mph - N/A   Clear
3:54 AM -2.2 °F -18.0 °F -5.8 °F 85% 30.00 in 10.0 mi West 9.2 mph - N/A   Clear
4:13 AM -2.2 °F -18.0 °F -5.8 °F 85% 30.00 in 10.0 mi WNW 9.2 mph - N/A   Clear
4:33 AM -2.2 °F -18.9 °F -5.8 °F 85% 30.00 in 10.0 mi WNW 10.4 mph - N/A   Clear
4:54 AM -2.2 °F -16.8 °F -5.8 °F 85% 30.00 in 10.0 mi WNW 8.1 mph - N/A   Clear
5:13 AM -4.0 °F -19.0 °F -7.6 °F 85% 29.99 in 10.0 mi WNW 8.1 mph - N/A   Clear
5:33 AM -2.2 °F -16.8 °F -5.8 °F 85% 30.00 in 10.0 mi West 8.1 mph - N/A   Mostly Cloudy
6:13 AM -4.0 °F -20.2 °F -7.6 °F 85% 30.00 in 10.0 mi West 9.2 mph - N/A   Overcast
6:33 AM -2.2 °F -18.0 °F -5.8 °F 85% 30.01 in 10.0 mi WNW 9.2 mph - N/A   Overcast
6:54 AM -2.2 °F -16.8 °F -5.8 °F 85% 30.00 in 10.0 mi West 8.1 mph - N/A   Overcast
7:13 AM -2.2 °F -16.8 °F -5.8 °F 85% 30.01 in 10.0 mi WNW 8.1 mph - N/A   Overcast
7:33 AM -0.4 °F -13.4 °F -4.0 °F 85% 30.01 in 10.0 mi WNW 6.9 mph - N/A   Overcast
7:53 AM -0.4 °F -13.4 °F -5.8 °F 78% 30.01 in 10.0 mi WNW 6.9 mph - N/A   Overcast
8:13 AM -0.4 °F -15.7 °F -4.0 °F 85% 30.02 in 10.0 mi WNW 9.2 mph - N/A   Overcast
8:34 AM -0.4 °F -13.4 °F -4.0 °F 85% 30.02 in 10.0 mi WNW 6.9 mph - N/A   Overcast
8:53 AM -0.4 °F -13.4 °F -4.0 °F 85% 30.02 in 10.0 mi WNW 6.9 mph - N/A   Overcast
9:13 AM 1.4 °F -12.5 °F -2.2 °F 85% 30.01 in 10.0 mi WNW 8.1 mph - N/A   Overcast
9:34 AM 1.4 °F -11.3 °F -2.2 °F 85% 30.01 in 10.0 mi NW 6.9 mph - N/A   Overcast
9:53 AM 3.2 °F -11.3 °F -2.2 °F 78% 30.01 in 10.0 mi NW 9.2 mph - N/A   Mostly Cloudy
10:13 AM 3.2 °F -10.3 °F -2.2 °F 78% 30.01 in 10.0 mi NW 8.1 mph - N/A   Mostly Cloudy
10:34 AM 3.2 °F -10.3 °F -2.2 °F 78% 30.01 in 10.0 mi NW 8.1 mph - N/A   Overcast
10:53 AM 5.0 °F -11.6 °F -2.2 °F 72% 30.01 in 10.0 mi NW 12.7 mph - N/A   Overcast
11:13 AM 5.0 °F -10.0 °F -2.2 °F 72% 30.01 in 10.0 mi WNW 10.4 mph - N/A   Overcast
11:34 AM 5.0 °F -9.1 °F -2.2 °F 72% 30.00 in 10.0 mi WNW 9.2 mph - N/A   Overcast
11:53 AM 6.8 °F -4.8 °F -2.2 °F 67% 29.99 in 10.0 mi NW 6.9 mph - N/A   Overcast
12:13 PM 6.8 °F -0.1 °F -2.2 °F 67% 29.98 in 10.0 mi WNW 3.5 mph - N/A   Overcast
12:33 PM 6.8 °F -3.5 °F -2.2 °F 67% 29.98 in 10.0 mi WNW 5.8 mph - N/A   Overcast
12:53 PM 6.8 °F -0.1 °F -2.2 °F 67% 29.97 in 10.0 mi West 3.5 mph - N/A   Overcast
1:13 PM 6.8 °F -2.0 °F -2.2 °F 67% 29.97 in 10.0 mi West 4.6 mph - N/A   Overcast
1:33 PM 6.8 °F -2.0 °F -2.2 °F 67% 29.97 in 10.0 mi West 4.6 mph - N/A   Mostly Cloudy
1:53 PM 6.8 °F -2.0 °F -2.2 °F 67% 29.95 in 10.0 mi West 4.6 mph - N/A   Scattered Clouds
2:13 PM 6.8 °F -2.0 °F -2.2 °F 67% 29.95 in 10.0 mi West 4.6 mph - N/A   Scattered Clouds
2:34 PM 6.8 °F -3.5 °F -2.2 °F 67% 29.94 in 10.0 mi West 5.8 mph - N/A   Scattered Clouds
2:53 PM 8.6 °F -1.3 °F -0.4 °F 67% 29.94 in 10.0 mi West 5.8 mph - N/A   Scattered Clouds
3:13 PM 8.6 °F 2.0 °F -2.2 °F 62% 29.94 in 10.0 mi West 3.5 mph - N/A   Overcast
3:34 PM 8.6 °F 2.0 °F -2.2 °F 62% 29.94 in 10.0 mi West 3.5 mph - N/A   Overcast
3:53 PM 8.6 °F - -2.2 °F 62% 29.93 in 10.0 mi Calm Calm - N/A   Overcast
4:13 PM 6.8 °F - -2.2 °F 67% 29.93 in 10.0 mi Calm Calm - N/A   Overcast
4:34 PM 6.8 °F - -2.2 °F 67% 29.93 in 10.0 mi Calm Calm - N/A   Overcast
4:53 PM 6.8 °F -0.1 °F -0.4 °F 72% 29.93 in 10.0 mi West 3.5 mph - N/A   Mostly Cloudy
5:13 PM 6.8 °F -2.0 °F -0.4 °F 72% 29.94 in 10.0 mi West 4.6 mph - N/A   Overcast
5:34 PM 6.8 °F -0.1 °F -0.4 °F 72% 29.93 in 10.0 mi West 3.5 mph - N/A   Overcast
5:53 PM 5.0 °F - -0.4 °F 78% 29.93 in 10.0 mi Calm Calm - N/A   Overcast
6:13 PM 6.8 °F - -0.4 °F 72% 29.94 in 10.0 mi Calm Calm - N/A   Overcast
6:34 PM 6.8 °F - 1.4 °F 79% 29.95 in 10.0 mi Calm Calm - N/A   Overcast
6:53 PM 6.8 °F - -0.4 °F 72% 29.94 in 10.0 mi Calm Calm - N/A   Overcast
7:13 PM 6.8 °F - -0.4 °F 72% 29.95 in 10.0 mi Calm Calm - N/A   Overcast
7:34 PM 6.8 °F - -0.4 °F 72% 29.95 in 10.0 mi Calm Calm - N/A   Overcast
7:53 PM 6.8 °F - 1.4 °F 79% 29.94 in 10.0 mi Calm Calm - N/A   Overcast
8:13 PM 6.8 °F - -0.4 °F 72% 29.94 in 10.0 mi Calm Calm - N/A   Overcast
8:34 PM 5.0 °F - -0.4 °F 78% 29.94 in 10.0 mi Calm Calm - N/A   Overcast
8:53 PM 5.0 °F - -0.4 °F 78% 29.94 in 10.0 mi Calm Calm - N/A   Overcast
9:13 PM 3.2 °F - -0.4 °F 85% 29.94 in 10.0 mi Calm Calm - N/A   Overcast
9:34 PM 3.2 °F - -0.4 °F 85% 29.95 in 10.0 mi Calm Calm - N/A   Overcast
9:53 PM 5.0 °F -4.1 °F -0.4 °F 78% 29.95 in 10.0 mi NNE 4.6 mph - N/A   Overcast
10:13 PM 5.0 °F -4.1 °F -2.2 °F 72% 29.96 in 10.0 mi NNE 4.6 mph - N/A   Overcast
10:33 PM 5.0 °F -2.1 °F -4.0 °F 66% 29.95 in 10.0 mi NE 3.5 mph - N/A   Mostly Cloudy
10:54 PM 5.0 °F -2.1 °F -2.2 °F 72% 29.96 in 10.0 mi NNE 3.5 mph - N/A   Mostly Cloudy
11:13 PM 5.0 °F -4.1 °F -2.2 °F 72% 29.96 in 10.0 mi NNE 4.6 mph - N/A   Overcast
11:33 PM 3.2 °F -4.2 °F -4.0 °F 72% 29.96 in 10.0 mi NNE 3.5 mph - N/A   Overcast
11:54 PM 3.2 °F -4.2 °F -4.0 °F 72% 29.96 in 10.0 mi NNE 3.5 mph - N/A   Overcast